Regional Weather Roundup
Issued by NWS Boston, MA

Home | Current Version | Previous Version | Text Only | Print | Product List | Glossary On
Versions: 1 2 3 4 5 6 7 8 9 10 11 12 13 14 15 16 17 18 19 20 21 22 23 24 25 26 27 28 29 30 31 32 33 34 35 36 37 38 39 40 41 42 43 44 45 46 47 48 49 50
000
ASUS41 KBOX 180110
RWRBOX

REGIONAL WEATHER ROUNDUP
NATIONAL WEATHER SERVICE TAUNTON MA
800 PM EST SUN DEC 17 2017

NOTE:  "FAIR" INDICATES FEW OR NO CLOUDS BELOW 12,000 FEET WITH NO
SIGNIFICANT WEATHER AND/OR OBSTRUCTIONS TO VISIBILITY.

MAZALL-180200-
EASTERN MASSACHUSETTS

CITY           SKY/WX    TMP DP  RH WIND       PRES   REMARKS
BOSTON         CLOUDY    26   3  37 N7        30.29R WCI  18
BEVERLY        CLOUDY    23   5  46 NW3       30.28R
LAWRENCE       CLOUDY    24   6  46 N3        30.30R
BEDFORD        CLOUDY    22   7  52 CALM      30.28R
BLUE HILL        N/A     22  13  68 NW7       30.23R WCI  13
NORWOOD        PTCLDY    23  13  65 CALM      30.28R
MARSHFIELD     CLOUDY    25   7  46 CALM      30.28R
PLYMOUTH       CLOUDY    21  10  62 CALM      30.27S
TAUNTON        PTCLDY    21  12  68 CALM      30.27R
NEW BEDFORD    PTCLDY    22  13  68 CALM      30.28R
$$

MAZALL-180200-
CAPE COD AND THE ISLANDS

CITY           SKY/WX    TMP DP  RH WIND       PRES   REMARKS
FALMOUTH       CLOUDY    19  10  68 CALM      30.28R
HYANNIS        PTCLDY    25   7  46 W3        30.25F
CHATHAM        MOCLDY    25   8  48 CALM      30.28R
PROVINCETOWN   CLOUDY    30  11  45 NW9       30.28R WCI  22
NANTUCKET      CLOUDY    27  13  55 NW6       30.27S WCI  20
MARTHAS VNYRD  CLOUDY     2  32 100 N3        30.27S
$$

MAZALL-180200-
CENTRAL AND WESTERN MASSACHUSETTS

CITY           SKY/WX    TMP DP  RH WIND       PRES   REMARKS
WORCESTER      CLOUDY    22   3  44 NW3       30.21R
FITCHBURG      CLOUDY    25   9  50 W5        30.28R WCI  19
ORANGE         NOT AVBL
SPRINGFIELD    CLOUDY    23  14  67 CALM      30.26R
WESTFIELD      MOCLDY    25   8  48 W3        30.27R
NORTH ADAMS    CLOUDY    18  10  71 CALM      30.25S
PITTSFIELD     PTCLDY    19  11  70 CALM      30.20S
$$

RIZALL-180200-
RHODE ISLAND

CITY           SKY/WX    TMP DP  RH WIND       PRES   REMARKS
PROVIDENCE     MOCLDY    28   8  43 CALM      30.29R
NEWPORT        MOCLDY    28  10  46 NW5       30.27R WCI  23
BLOCK ISLAND   CLOUDY    30  13  49 NW6       30.28R WCI  24
SMITHFIELD     PTCLDY    22   8  55 NW3       30.26R
WESTERLY       CLOUDY    29  14  53 CALM      30.29R
$$

CTZALL-180200-
CONNECTICUT

CITY           SKY/WX    TMP DP  RH WIND       PRES   REMARKS
BRADLEY INTL   CLOUDY    27   8  44 NW3       30.28R
HARTFORD       CLOUDY    29  11  47 CALM      30.29R
BRIDGEPORT     CLOUDY    32  20  61 CALM      30.28R
DANBURY        CLOUDY    29  20  69 CALM      30.26S
GROTON         MOCLDY    30  14  51 NW3       30.29R
NEW HAVEN      CLOUDY    31  15  52 CALM      30.29R
CHESTER        FAIR      28  10  47 CALM      30.26R
MERIDEN        PTCLDY    28  16  60 CALM      30.28S
WILLIMANTIC    CLOUDY    26  14  60 CALM      30.29R
OXFORD         CLOUDY    27  13  55 CALM      30.25R
$$

MEZ002-015-021-024-NHZ003-005-008-011-012-014-VTZ005-008-180200-
NORTHERN NEW ENGLAND

CITY           SKY/WX    TMP DP  RH WIND       PRES   REMARKS
PORTLAND ME    PTCLDY    17   3  54 SE5       30.28R WCI  10
BANGOR ME      PTCLDY     8  -1  66 NW5       30.22F WCI   0
CONCORD NH     PTCLDY    16   6  65 CALM      30.27R
MANCHESTER NH  CLOUDY    21   6  52 NW6       30.27R WCI  13
NASHUA NH      CLOUDY    18   9  68 CALM      30.28R
PORTSMOUTH NH  CLOUDY    20   2  45 W5        30.26R WCI  13
JAFFREY NH     CLOUDY    14   7  73 CALM      30.21R
KEENE NH       CLOUDY    14   8  77 S3        30.27R
BURLINGTON VT  CLOUDY     8   1  73 CALM      30.27F
MT. WASHINGTON PTCLDY     7 -13  40 NW36        N/A  WCI -18
$$

NYZ052-076-180200-
EASTERN NEW YORK

CITY           SKY/WX    TMP DP  RH WIND       PRES   REMARKS
ALBANY         CLOUDY    22  10  60 N5        30.28S WCI  16
NEW YORK CITY  CLOUDY    36  25  64 E7        30.27S WCI  30
$$

ANZALL-180200-
MARINE OBSERVATIONS

STATION/POSITION TIME  TEMP    WIND        PRES    VSBY  WAVE
                       AIR SEA DIR/SP/G                  HT/PER
                 (UTC) (F)     (DEG/KT/KT) (MB)    (MI)  (FT/S)
BOSTON BUOY      2350   30 47  320/ 12/ 16 1024.4          2/ 3
BUZZARDS BAY     0000   31     330/  9/ 10 1025.4R
NANTUCKET SOUND  2350   30 40  310/  8/ 10 1025.0          1
MASS BAY-STELLWA 0004   27 46  330/ 14/ 17 1024.6R         2/ 3
ISLE OF SHOALS   0000   24     310/ 16/ 18 1024.5R
S OF BLOCK IS    0043      51                N/A           3/ 6
$$

......................KEY.........................
  SKY/WX - SKY CONDITION/PRESENT WEATHER
  TMP    - TEMPERATURE IN FAHRENHEIT
  DWPT   - DEWPOINT IN FAHRENHEIT
  RH     - RELATIVE HUMIDITY IN PERCENT
  WIND   - DIRECTION AND SPEED IN MPH
  PRES   - MEAN SEA LEVEL PRESSURE IN INCHES OF HG
  WCI    - WIND CHILL INDEX
  VSB    - VISIBILITY IN MILES
  HX     - HEAT INDEX
  TC     - TEMPERATURE IN CELSIUS
  VRB    - VARIABLE WIND DIRECTION
  N/A    - NOT AVAILABLE



USA.gov is the U.S. government's official web portal to all federal, state and local government web resources and services.